Buenos Aires Air Park, Argentina

8:18 AM ART on December 10, 2016 (GMT -0300)
Buenos Aires

Weather History for SABE - February, 2014

Change the Weather History Date:

Friday, February 7, 2014

  Actual Average Record
Temperature  
Mean Temperature 74 °F -  
Max Temperature 79 °F 80 °F 87 °F (2012)
Min Temperature 68 °F 66 °F 59 °F (1999)
Cooling Degree Days 8    
Growing Degree Days 24 (Base 50)    
Moisture  
Dew Point 69 °F    
Average Humidity 88    
Maximum Humidity 94    
Minimum Humidity 78    
Precipitation  
Precipitation 2.48 in 0.15 in - ()
Sea Level Pressure  
Sea Level Pressure 29.74 in    
Wind  
Wind Speed 6 mph ()    
Max Wind Speed 18 mph    
Max Gust Speed -    
Visibility 3.7 miles    
Events Rain , Thunderstorm    
Averages and records for this station are not official NWS values.
T = Trace of Precipitation, MM = Missing Value Source: Averaged Metar Reports

Daily Weather History Graph

Daily Weather History Graph

Search for Another Location

Airport or City:

Trip Planner

Search our weather history database for the weather conditions in past years. The results will help you decide how hot, cold, wet, or windy it might be!

Date:

Astronomy

Feb. 07, 2014 Rise Set
Actual Time 6:20 AM ART 7:54 PM ART
Civil Twilight 5:53 AM ART 8:21 PM ART
Nautical Twilight 5:20 AM ART 8:54 PM ART
Astronomical Twilight 4:46 AM ART 9:27 PM ART
Moon 2:24 PM ART (2/7) 12:17 AM ART (2/7)
Length of Visible Light 14h 28m
Length of Day
13h 34m
First Quarter, 58% of the Moon is Illuminated
Feb 7
First Quarter
Feb 14
Full
Feb 22
Last Quarter
Mar 1
New
Mar 8
First Quarter

Hourly Weather History & Observations

Time (ART) Temp. Dew Point Humidity Pressure Visibility Wind Dir Wind Speed Gust Speed Precip Events Conditions
12:00 AM 70 °F 67 °F 86% 29.83 in 6 mi ENE 5.8 mph - -   Partly Cloudy
12:00 AM 69.8 °F 66.2 °F 88% 29.83 in 6.2 mi ENE 5.8 mph - N/A   Mostly Cloudy
1:00 AM 69.8 °F 66.2 °F 88% 29.80 in 6.2 mi East 5.8 mph - N/A   Mostly Cloudy
2:00 AM 69.8 °F 66.2 °F 88% 29.80 in 6.2 mi ESE 8.1 mph - N/A   Mostly Cloudy
3:00 AM 70 °F 67 °F 87% 29.80 in 6 mi SE 6.9 mph - -   Overcast
3:00 AM 69.8 °F 66.2 °F 88% 29.80 in 6.2 mi SE 6.9 mph - N/A   Mostly Cloudy
4:00 AM 68.0 °F 66.2 °F 94% 29.74 in 6.2 mi East 10.4 mph - N/A   Overcast
5:00 AM 69.8 °F 66.2 °F 88% 29.71 in 6.2 mi ESE 11.5 mph - N/A   Overcast
5:38 AM 69.8 °F 66.2 °F 88% 29.74 in 1.2 mi ESE 8.1 mph - N/A Rain , Thunderstorm Thunderstorms and Rain
6:00 AM 69 °F 67 °F 91% 29.85 in 1 mi WNW 18.4 mph - - Rain , Thunderstorm Thunderstorms and Rain
6:00 AM 69.8 °F 66.2 °F 88% 29.83 in 1.1 mi WNW 18.4 mph - N/A Rain , Thunderstorm Thunderstorms and Rain
6:12 AM 69.8 °F 66.2 °F 88% 29.74 in 1.9 mi ENE 4.6 mph - N/A Rain , Thunderstorm Thunderstorms and Rain
6:40 AM 69.8 °F 68.0 °F 94% 29.71 in 1.1 mi ENE 4.6 mph - N/A Rain , Thunderstorm Thunderstorms and Rain
7:00 AM 71.6 °F 68.0 °F 88% - 1.9 mi ENE 5.8 mph - N/A Rain , Thunderstorm Thunderstorms and Rain
7:08 AM 71.6 °F 68.0 °F 88% 29.71 in 1.1 mi ENE 3.5 mph - N/A Rain , Thunderstorm Thunderstorms and Rain
7:25 AM 71.6 °F 68.0 °F 88% - 3.1 mi ESE 5.8 mph - N/A Rain , Thunderstorm Thunderstorms and Rain
8:00 AM 71.6 °F 69.8 °F 94% - 1.2 mi SSW 9.2 mph - N/A Rain , Thunderstorm Thunderstorms and Rain
8:27 AM 71.6 °F 69.8 °F 94% 29.71 in 0.9 mi SSW 3.5 mph - N/A Rain , Thunderstorm Thunderstorms and Rain
9:00 AM 71 °F 69 °F 92% 29.73 in 2 mi SE 3.5 mph - - Rain , Thunderstorm Thunderstorms and Rain
9:00 AM 71.6 °F 69.8 °F 94% - 1.9 mi SE 3.5 mph - N/A Rain , Thunderstorm Thunderstorms and Rain
10:00 AM - - N/A% 29.71 in 0.9 mi SSE 6.9 mph - N/A Rain , Thunderstorm Thunderstorms and Rain
10:10 AM 71.6 °F 69.8 °F 94% 29.68 in 0.5 mi SSE 8.1 mph - N/A Rain , Thunderstorm Thunderstorms and Rain
11:00 AM 71.6 °F 69.8 °F 94% - 1.2 mi WNW 3.5 mph - N/A Rain , Thunderstorm Thunderstorms and Rain
11:15 AM 71.6 °F 69.8 °F 94% 29.71 in 2.5 mi ENE 3.5 mph - N/A Rain , Thunderstorm Thunderstorms and Rain
11:25 AM 71.6 °F 69.8 °F 94% 29.74 in 0.9 mi NE 3.5 mph - N/A Rain , Thunderstorm Thunderstorms and Rain
12:00 PM 71 °F 70 °F 94% 29.73 in 0 mi NW 3.5 mph - - Rain , Thunderstorm Thunderstorms and Rain
12:00 PM 71.6 °F 69.8 °F 94% 29.71 in 0.5 mi NW 3.5 mph - N/A Rain , Thunderstorm Thunderstorms and Rain
12:15 PM 71.6 °F 69.8 °F 94% 29.71 in 0.9 mi NW 3.5 mph - N/A Rain , Thunderstorm Thunderstorms and Rain
12:30 PM 71.6 °F 69.8 °F 94% 29.71 in 3.1 mi NNE 8.1 mph - N/A Rain , Thunderstorm Thunderstorms and Rain
1:00 PM 73.4 °F 71.6 °F 94% 29.71 in 3.1 mi SSW 9.2 mph - N/A Rain , Thunderstorm Thunderstorms and Rain
2:00 PM 75.2 °F 71.6 °F 89% 29.68 in 3.7 mi NNE 6.9 mph - N/A Rain Light Rain
3:00 PM 77 °F 72 °F 81% 29.70 in 6 mi NW 6.9 mph - - Rain Light Rain
3:00 PM 77.0 °F 71.6 °F 83% 29.68 in 6.2 mi NW 6.9 mph - N/A   Mostly Cloudy
4:00 PM 77.0 °F 71.6 °F 83% 29.68 in 6.2 mi North 4.6 mph - N/A   Scattered Clouds
5:00 PM 78.8 °F 73.4 °F 83% 29.68 in 6.2 mi North 5.8 mph - N/A   Scattered Clouds
6:00 PM 79 °F 74 °F 79% 29.70 in 6 mi NNW 6.9 mph - -   Partly Cloudy
6:00 PM 78.8 °F 73.4 °F 83% 29.68 in 6.2 mi NNW 6.9 mph - N/A   Scattered Clouds
7:00 PM 78.8 °F 73.4 °F 83% 29.71 in 6.2 mi North 6.9 mph - N/A   Scattered Clouds
8:00 PM 78.8 °F 73.4 °F 83% 29.71 in 6.2 mi North 3.5 mph - N/A   Mostly Cloudy
9:00 PM 78 °F 72 °F 78% 29.75 in 6 mi NE 2.3 mph - -   Scattered Clouds
9:00 PM 78.8 °F 71.6 °F 78% 29.74 in 6.2 mi NE 2.3 mph - N/A   Mostly Cloudy
10:00 PM 75.2 °F 69.8 °F 83% 29.74 in 6.2 mi NE 3.5 mph - N/A   Scattered Clouds
11:00 PM 75.2 °F 69.8 °F 83% 29.77 in 6.2 mi North 2.3 mph - N/A   Scattered Clouds